Pineville, WV

6:46 PM EDT on May 26, 2017 (GMT -0400)
Pineville

Weather History for KI16 - March, 2013

Change the Weather History Date:

Sunday, March 10, 2013

  Actual Average (KBKW) Record (KBKW)
Temperature  
Mean Temperature 57 °F -  
Max Temperature 75 °F 49 °F 77 °F (2016)
Min Temperature 39 °F 30 °F 1 °F (1996)
Degree Days  
Heating Degree Days 8    
Growing Degree Days 7 (Base 50)    
Moisture  
Dew Point 37 °F    
Average Humidity 54    
Maximum Humidity 89    
Minimum Humidity 25    
Precipitation  
Precipitation 0.00 in - - ()
Sea Level Pressure  
Sea Level Pressure 30.16 in    
Wind  
Wind Speed - (North)    
Max Wind Speed -    
Max Gust Speed -    
Visibility 10 miles    
Events      
Averages and records for this station are not official NWS values.
T = Trace of Precipitation, MM = Missing Value Source: NWS Daily Summary

Daily Weather History Graph

Daily Weather History Graph

Search for Another Location

Airport or City:

Trip Planner

Search our weather history database for the weather conditions in past years. The results will help you decide how hot, cold, wet, or windy it might be!

Date:

Astronomy

Mar. 10, 2013 Rise Set
Actual Time 7:44 AM EDT 7:29 PM EDT
Civil Twilight 7:18 AM EDT 7:55 PM EDT
Nautical Twilight 6:48 AM EDT 8:25 PM EDT
Astronomical Twilight 6:17 AM EDT 8:56 PM EDT
Moon 6:42 AM EDT (3/10) 6:35 PM EDT (3/10)
Length of Visible Light 12h 36m
Length of Day
11h 44m
Waning Crescent, 2% of the Moon is Illuminated
Mar 10
Waning Crescent
Mar 11
New
Mar 19
First Quarter
Mar 27
Full
Apr 3
Last Quarter

Hourly Weather History & Observations

Time (EDT) Temp. Dew Point Humidity Pressure Visibility Wind Dir Wind Speed Gust Speed Precip Events Conditions
12:15 AM 41.9 °F 36.9 °F 82% 30.22 in 10.0 mi North - - N/A   Overcast
12:35 AM 42.3 °F 37.4 °F 83% 30.23 in 10.0 mi North - - N/A   Overcast
12:55 AM 42.6 °F 37.4 °F 82% 30.24 in 10.0 mi North - - N/A   Overcast
1:15 AM 41.4 °F 37.4 °F 86% 30.23 in 10.0 mi North - - N/A   Mostly Cloudy
1:35 AM 40.5 °F 36.7 °F 86% 30.23 in 10.0 mi North - - N/A   Mostly Cloudy
1:55 AM 40.6 °F 36.9 °F 86% 30.22 in 10.0 mi North - - N/A   Scattered Clouds
3:15 AM 41.0 °F 36.5 °F 84% 30.21 in 10.0 mi North - - N/A   Clear
3:35 AM 40.5 °F 36.7 °F 86% 30.21 in 10.0 mi North - - N/A   Scattered Clouds
3:55 AM 40.6 °F 36.5 °F 85% 30.20 in 10.0 mi North - - N/A   Scattered Clouds
4:15 AM 41.0 °F 36.5 °F 84% 30.19 in 10.0 mi North - - N/A   Clear
4:35 AM 39.6 °F 36.3 °F 88% 30.19 in 10.0 mi North - - N/A   Scattered Clouds
4:55 AM 39.6 °F 36.5 °F 89% 30.19 in 10.0 mi North - - N/A   Mostly Cloudy
5:15 AM 40.3 °F 36.9 °F 88% 30.18 in 10.0 mi North - - N/A   Overcast
5:35 AM 41.5 °F 37.2 °F 85% 30.19 in 10.0 mi North - - N/A   Overcast
5:55 AM 42.3 °F 37.4 °F 83% 30.18 in 10.0 mi North - - N/A   Overcast
6:15 AM 42.8 °F 37.4 °F 81% 30.18 in 10.0 mi North - - N/A   Overcast
6:35 AM 42.3 °F 37.4 °F 83% 30.19 in 10.0 mi North - - N/A   Mostly Cloudy
6:55 AM 41.0 °F 36.5 °F 84% 30.18 in 10.0 mi North - - N/A   Mostly Cloudy
7:15 AM 40.5 °F 36.1 °F 85% 30.18 in 10.0 mi North - - N/A   Scattered Clouds
7:35 AM 41.0 °F 35.8 °F 82% 30.18 in 10.0 mi North - - N/A   Clear
8:35 AM 41.0 °F 36.5 °F 84% 30.20 in 10.0 mi North - - N/A   Overcast
8:55 AM 41.5 °F 36.5 °F 82% 30.21 in 10.0 mi North - - N/A   Scattered Clouds
9:15 AM 42.1 °F 37.8 °F 85% 30.21 in 10.0 mi North - - N/A   Clear
9:35 AM 47.5 °F 37.2 °F 68% 30.22 in 10.0 mi North - - N/A   Clear
9:55 AM 51.3 °F 36.1 °F 56% 30.22 in 10.0 mi North - - N/A   Clear
10:15 AM 54.5 °F 34.3 °F 47% 30.23 in 10.0 mi North - - N/A   Clear
10:35 AM 55.2 °F 34.3 °F 45% 30.22 in 10.0 mi North - - N/A   Clear
10:55 AM 56.3 °F 34.7 °F 44% 30.21 in 10.0 mi North - - N/A   Clear
11:15 AM 57.7 °F 35.4 °F 43% 30.21 in 10.0 mi North - - N/A   Clear
11:35 AM 61.5 °F 35.2 °F 37% 30.21 in 10.0 mi North - - N/A   Clear
11:55 AM 62.8 °F 35.6 °F 36% 30.20 in 10.0 mi North - - N/A   Clear
12:15 PM 64.8 °F 35.8 °F 34% 30.19 in 10.0 mi North - - N/A   Clear
12:35 PM 65.5 °F 35.4 °F 33% 30.19 in 10.0 mi North - - N/A   Clear
12:55 PM 67.5 °F 36.3 °F 32% 30.18 in 10.0 mi North - - N/A   Clear
1:15 PM 67.6 °F 36.1 °F 31% 30.18 in 10.0 mi North - - N/A   Clear
1:35 PM 69.6 °F 36.7 °F 30% 30.16 in 10.0 mi North - - N/A   Clear
1:55 PM 69.8 °F 36.7 °F 30% 30.15 in 10.0 mi North - - N/A   Clear
2:15 PM 70.9 °F 36.9 °F 29% 30.15 in 10.0 mi North - - N/A   Clear
2:35 PM 73.4 °F 37.8 °F 27% 30.13 in 10.0 mi North - - N/A   Clear
2:55 PM 73.4 °F 36.9 °F 26% 30.11 in 10.0 mi North - - N/A   Clear
3:15 PM 74.5 °F 37.2 °F 26% 30.10 in 10.0 mi North - - N/A   Clear
3:35 PM 75.0 °F 37.4 °F 26% 30.09 in 10.0 mi North - - N/A   Clear
3:55 PM 74.3 °F 36.5 °F 25% 30.10 in 10.0 mi North - - N/A   Clear
4:15 PM 75.0 °F 36.5 °F 25% 30.10 in 10.0 mi North - - N/A   Clear
4:35 PM 75.2 °F 36.7 °F 25% 30.09 in 10.0 mi North - - N/A   Clear
4:55 PM 75.2 °F 37.0 °F 25% 30.09 in 10.0 mi North - - N/A   Clear
5:15 PM 74.7 °F 36.9 °F 25% 30.08 in 10.0 mi North - - N/A   Clear
5:35 PM 73.4 °F 36.5 °F 26% 30.08 in 10.0 mi North - - N/A   Clear
5:55 PM 71.6 °F 36.3 °F 28% 30.08 in 10.0 mi North - - N/A   Clear
6:15 PM 70.7 °F 36.9 °F 29% 30.09 in 10.0 mi North - - N/A   Clear
6:35 PM 69.4 °F 36.1 °F 29% 30.09 in 10.0 mi North - - N/A   Clear
6:55 PM 67.6 °F 35.8 °F 31% 30.10 in 10.0 mi North - - N/A   Clear
7:15 PM 66.2 °F 35.4 °F 32% 30.11 in 10.0 mi North - - N/A   Clear
7:35 PM 62.8 °F 38.8 °F 41% 30.12 in 10.0 mi North - - N/A   Clear
7:55 PM 63.1 °F 36.3 °F 37% 30.11 in 10.0 mi North - - N/A   Clear
8:15 PM 60.8 °F 38.1 °F 43% 30.11 in 10.0 mi North - - N/A   Clear
8:35 PM 60.8 °F 37.4 °F 42% 30.12 in 10.0 mi North - - N/A   Clear
8:55 PM 60.6 °F 36.5 °F 41% 30.12 in 10.0 mi North - - N/A   Clear
9:15 PM 58.3 °F 37.2 °F 45% 30.12 in 10.0 mi North - - N/A   Clear
9:35 PM 57.9 °F 37.8 °F 47% 30.12 in 10.0 mi North - - N/A   Clear
10:15 PM 59.0 °F 35.8 °F 42% 30.12 in 10.0 mi North - - N/A   Clear
10:35 PM 57.0 °F 37.2 °F 48% 30.12 in 10.0 mi North - - N/A   Clear
10:55 PM 57.0 °F 37.2 °F 48% 30.13 in 10.0 mi North - - N/A   Clear
11:15 PM 55.4 °F 36.7 °F 49% 30.12 in 10.0 mi North - - N/A   Clear
11:35 PM 52.7 °F 38.5 °F 58% 30.12 in 10.0 mi North - - N/A   Clear
11:55 PM 50.5 °F 38.8 °F 64% 30.11 in 10.0 mi North - - N/A   Clear
12:15 AM 49.6 °F 38.7 °F 66% 30.11 in 10.0 mi North - - N/A   Clear
12:35 AM 48.7 °F 38.7 °F 68% 30.11 in 10.0 mi North - - N/A   Clear